EZY48UQ LPFR-EGKK

Flight info

Callsign EZY48UQ
Flight time N/A
Altitude 38000
Route N0430F380 DCT PINEK DCT KORUL DCT FEJAC/N0416F360 DCT JSY/N0400F340 DCT REVTU/N0387F320 UP88 VASUX
Aircraft A320/M-SDE3FGHIRWY/LB1

Departure

Time 2026-04-27 18:16
Airport Faro - Gago Coutinho International Airport (LPFR)

Arrival

Time N/A
Airport London Gatwick Airport (EGKK)
Time Latitude Longitude Altitude Speed Heading
2026-04-27 17:47 37.01890 -7.96698 20 ft 0 kts
2026-04-27 17:48 37.01899 -7.96697 20 ft 0 kts
2026-04-27 18:08 37.01896 -7.96698 20 ft 3 kts
2026-04-27 18:08 37.01870 -7.96702 21 ft 4 kts
2026-04-27 18:08 37.01844 -7.96708 22 ft 4 kts 25°
2026-04-27 18:09 37.01822 -7.96724 21 ft 4 kts 56°
2026-04-27 18:09 37.01816 -7.96749 21 ft 4 kts 91°
2026-04-27 18:09 37.01820 -7.96782 21 ft 4 kts 105°
2026-04-27 18:09 37.01824 -7.96803 21 ft 0 kts 99°
2026-04-27 18:12 37.01819 -7.96764 22 ft 11 kts 99°
2026-04-27 18:12 37.01806 -7.96659 20 ft 11 kts 99°
2026-04-27 18:12 37.01792 -7.96568 20 ft 10 kts 105°
2026-04-27 18:12 37.01744 -7.96527 20 ft 10 kts 178°
2026-04-27 18:13 37.01671 -7.96540 20 ft 11 kts 189°
2026-04-27 18:13 37.01616 -7.96499 20 ft 9 kts 114°
2026-04-27 18:13 37.01604 -7.96419 20 ft 10 kts 101°
2026-04-27 18:13 37.01590 -7.96330 20 ft 10 kts 100°
2026-04-27 18:14 37.01578 -7.96246 20 ft 9 kts 99°
2026-04-27 18:14 37.01567 -7.96168 21 ft 12 kts 101°
2026-04-27 18:14 37.01549 -7.96042 19 ft 14 kts 99°
2026-04-27 18:14 37.01533 -7.95925 18 ft 13 kts 100°
2026-04-27 18:15 37.01486 -7.95844 18 ft 11 kts 158°
2026-04-27 18:15 37.01396 -7.95855 20 ft 14 kts 189°
2026-04-27 18:15 37.01348 -7.95911 21 ft 10 kts 272°
2026-04-27 18:15 37.01364 -7.96022 21 ft 23 kts 281°
2026-04-27 18:16 37.01436 -7.96543 23 ft 96 kts 280°
2026-04-27 18:16 37.01583 -7.97614 27 ft 151 kts 277°
2026-04-27 18:16 37.01763 -7.98929 563 ft 154 kts 279°
2026-04-27 18:16 37.01961 -8.00252 1183 ft 155 kts 279°
2026-04-27 18:17 37.02169 -8.01652 1566 ft 174 kts 278°
2026-04-27 18:17 37.02403 -8.03241 1873 ft 198 kts 279°
2026-04-27 18:17 37.02666 -8.05031 2269 ft 217 kts 280°
2026-04-27 18:17 37.02947 -8.06914 2963 ft 223 kts 281°
2026-04-27 18:18 37.03379 -8.08835 3441 ft 240 kts 300°
2026-04-27 18:18 37.04558 -8.10388 3787 ft 259 kts 334°
2026-04-27 18:18 37.06346 -8.10973 4178 ft 278 kts 357°
2026-04-27 18:18 37.08362 -8.11179 4555 ft 303 kts 359°
2026-04-27 18:19 37.10546 -8.11363 4873 ft 327 kts 359°
2026-04-27 18:19 37.12873 -8.11556 5330 ft 341 kts 359°
2026-04-27 18:19 37.15268 -8.11765 6032 ft 348 kts 358°
2026-04-27 18:19 37.17694 -8.11988 6775 ft 351 kts 358°
2026-04-27 18:20 37.20149 -8.12222 7479 ft 357 kts 357°
2026-04-27 18:20 37.22637 -8.12464 8222 ft 361 kts 357°
2026-04-27 18:20 37.25155 -8.12709 8934 ft 366 kts 357°
2026-04-27 18:20 37.27713 -8.12954 9615 ft 372 kts 356°
2026-04-27 18:21 37.30312 -8.13205 10274 ft 376 kts 356°
2026-04-27 18:21 37.32927 -8.13460 11010 ft 379 kts 355°
2026-04-27 18:21 37.35566 -8.13716 11694 ft 382 kts 355°
2026-04-27 18:21 37.38190 -8.13970 12361 ft 386 kts 355°
2026-04-27 18:22 37.40882 -8.14230 13003 ft 390 kts 355°
2026-04-27 18:22 37.43600 -8.14490 13662 ft 394 kts 355°
2026-04-27 18:22 37.46350 -8.14753 14255 ft 398 kts 354°
2026-04-27 18:22 37.49125 -8.15021 14799 ft 402 kts 354°
2026-04-27 18:23 37.51930 -8.15293 15364 ft 406 kts 354°
2026-04-27 18:23 37.54760 -8.15566 15901 ft 411 kts 354°
2026-04-27 18:23 37.57627 -8.15842 16437 ft 415 kts 355°
2026-04-27 18:23 37.60516 -8.16123 17017 ft 419 kts 355°
2026-04-27 18:24 37.63437 -8.16408 17531 ft 423 kts 355°
2026-04-27 18:24 37.66386 -8.16696 18104 ft 426 kts 355°
2026-04-27 18:24 37.69350 -8.16986 18610 ft 429 kts 355°
2026-04-27 18:24 37.72337 -8.17276 19067 ft 432 kts 354°
2026-04-27 18:25 37.75340 -8.17567 19566 ft 434 kts 354°
2026-04-27 18:25 37.78356 -8.17857 20025 ft 436 kts 354°
2026-04-27 18:25 37.81390 -8.18148 20508 ft 437 kts 355°
2026-04-27 18:25 37.84428 -8.18442 20979 ft 439 kts 354°
2026-04-27 18:26 37.87481 -8.18737 21412 ft 441 kts 354°
2026-04-27 18:26 37.90545 -8.19036 21862 ft 443 kts 353°
2026-04-27 18:26 37.93627 -8.19339 22293 ft 444 kts 354°
2026-04-27 18:26 37.96709 -8.19641 22714 ft 446 kts 354°
2026-04-27 18:27 37.99808 -8.19943 23110 ft 448 kts 354°
2026-04-27 18:27 38.02926 -8.20247 23496 ft 450 kts 354°
2026-04-27 18:27 38.06054 -8.20553 23802 ft 452 kts 354°
2026-04-27 18:27 38.09197 -8.20862 24107 ft 454 kts 354°
2026-04-27 18:28 38.12355 -8.21172 24402 ft 456 kts 354°
2026-04-27 18:28 38.15531 -8.21483 24689 ft 458 kts 354°
2026-04-27 18:28 38.18721 -8.21795 24968 ft 461 kts 354°
2026-04-27 18:28 38.21917 -8.22107 25241 ft 463 kts 354°
2026-04-27 18:29 38.25093 -8.22419 25498 ft 465 kts 354°
2026-04-27 18:29 38.28326 -8.22738 25760 ft 467 kts 354°
2026-04-27 18:29 38.31568 -8.23058 26013 ft 468 kts 354°
2026-04-27 18:29 38.34826 -8.23380 26253 ft 470 kts 354°
2026-04-27 18:30 38.38090 -8.23702 26503 ft 472 kts 354°
2026-04-27 18:30 38.41373 -8.24027 26725 ft 474 kts 354°
2026-04-27 18:30 38.44665 -8.24353 26951 ft 475 kts 354°
2026-04-27 18:30 38.47969 -8.24682 27227 ft 476 kts 354°
2026-04-27 18:31 38.51263 -8.25008 27542 ft 475 kts 354°
2026-04-27 18:31 38.54553 -8.25333 27864 ft 474 kts 354°
2026-04-27 18:31 38.57841 -8.25660 28180 ft 473 kts 354°
2026-04-27 18:31 38.61123 -8.25989 28512 ft 473 kts 354°
2026-04-27 18:32 38.64407 -8.26320 28805 ft 473 kts 355°
2026-04-27 18:32 38.67692 -8.26652 29120 ft 473 kts 355°
2026-04-27 18:32 38.70972 -8.26979 29449 ft 473 kts 355°
2026-04-27 18:32 38.74250 -8.27304 29784 ft 472 kts 355°
2026-04-27 18:33 38.77522 -8.27627 30088 ft 472 kts 355°
2026-04-27 18:33 38.80789 -8.27953 30381 ft 471 kts 355°
2026-04-27 18:33 38.84053 -8.28281 30667 ft 470 kts 355°
2026-04-27 18:33 38.87312 -8.28609 30960 ft 469 kts 355°
2026-04-27 18:34 38.90566 -8.28936 31256 ft 469 kts 355°
2026-04-27 18:34 38.93813 -8.29262 31550 ft 468 kts 355°
2026-04-27 18:34 38.97054 -8.29586 31842 ft 467 kts 355°
2026-04-27 18:34 39.00297 -8.29911 32134 ft 466 kts 355°
2026-04-27 18:35 39.03526 -8.30233 32429 ft 466 kts 355°
2026-04-27 18:35 39.06751 -8.30552 32717 ft 465 kts 355°
2026-04-27 18:35 39.09981 -8.30871 32962 ft 466 kts 355°
2026-04-27 18:35 39.13214 -8.31195 33229 ft 466 kts 355°
2026-04-27 18:36 39.16445 -8.31524 33504 ft 465 kts 355°
2026-04-27 18:36 39.19631 -8.31852 33787 ft 465 kts 355°
2026-04-27 18:36 39.22853 -8.32182 34050 ft 464 kts 355°
2026-04-27 18:36 39.26073 -8.32507 34292 ft 464 kts 355°
2026-04-27 18:37 39.29291 -8.32832 34532 ft 464 kts 355°
2026-04-27 18:37 39.32516 -8.33161 34703 ft 466 kts 354°
2026-04-27 18:37 39.35747 -8.33495 34905 ft 466 kts 354°
2026-04-27 18:37 39.38980 -8.33827 35127 ft 466 kts 354°
2026-04-27 18:38 39.42210 -8.34157 35338 ft 466 kts 354°
2026-04-27 18:38 39.44347 -8.34374 35480 ft 465 kts 354°
2026-04-27 18:38 39.48668 -8.34807 35740 ft 466 kts 354°
2026-04-27 18:38 39.51896 -8.35132 35943 ft 465 kts 354°
2026-04-27 18:39 39.55127 -8.35462 36130 ft 466 kts 354°
2026-04-27 18:39 39.58355 -8.35792 36319 ft 465 kts 354°
2026-04-27 18:39 39.61584 -8.36121 36514 ft 465 kts 354°
2026-04-27 18:39 39.64808 -8.36448 36714 ft 465 kts 354°
2026-04-27 18:40 39.68026 -8.36778 36900 ft 464 kts 354°
2026-04-27 18:40 39.71244 -8.37109 37081 ft 464 kts 354°
2026-04-27 18:40 39.74461 -8.37440 37251 ft 464 kts 354°
2026-04-27 18:40 39.77672 -8.37772 37411 ft 463 kts 354°
2026-04-27 18:41 39.80886 -8.38104 37576 ft 463 kts 353°
2026-04-27 18:41 39.84097 -8.38437 37753 ft 462 kts 354°
2026-04-27 18:41 39.87301 -8.38767 37913 ft 462 kts 353°
2026-04-27 18:41 39.89429 -8.38985 37942 ft 464 kts 354°
2026-04-27 18:42 39.94830 -8.39540 37938 ft 466 kts 353°
2026-04-27 18:42 40.02340 -8.40320 37940 ft 466 kts 353°
2026-04-27 18:43 40.08812 -8.40996 37945 ft 466 kts 353°
2026-04-27 18:43 40.15282 -8.41665 37946 ft 467 kts 353°
2026-04-27 18:44 40.21753 -8.42334 37955 ft 467 kts 353°
2026-04-27 18:44 40.28226 -8.43009 37957 ft 466 kts 353°
2026-04-27 18:45 40.34698 -8.43688 37957 ft 466 kts 353°
2026-04-27 18:45 40.41168 -8.44364 37961 ft 466 kts 353°
2026-04-27 18:46 40.47637 -8.45040 37964 ft 466 kts 353°
2026-04-27 18:46 40.54108 -8.45714 37962 ft 466 kts 353°
2026-04-27 18:47 40.60578 -8.46403 37970 ft 466 kts 353°
2026-04-27 18:47 40.67000 -8.47085 37965 ft 466 kts 353°
2026-04-27 18:48 40.73462 -8.47761 37965 ft 466 kts 353°
2026-04-27 18:48 40.79924 -8.48450 37964 ft 466 kts 353°
2026-04-27 18:49 40.86385 -8.49136 37970 ft 466 kts 353°
2026-04-27 18:49 40.92846 -8.49818 37965 ft 466 kts 353°
2026-04-27 18:50 40.99305 -8.50499 37964 ft 465 kts 353°
2026-04-27 18:50 41.05761 -8.51191 37967 ft 466 kts 353°
2026-04-27 18:51 41.12222 -8.51887 37965 ft 466 kts 353°
2026-04-27 18:51 41.18689 -8.52576 37963 ft 466 kts 353°
2026-04-27 18:52 41.25161 -8.53273 37976 ft 466 kts 353°
2026-04-27 18:53 41.34868 -8.54314 37969 ft 467 kts 353°
2026-04-27 18:53 41.41340 -8.55012 37969 ft 467 kts 353°
2026-04-27 18:54 41.47814 -8.55723 37974 ft 467 kts 353°
2026-04-27 18:54 41.54291 -8.56425 37980 ft 467 kts 353°
2026-04-27 18:55 41.60774 -8.57119 37982 ft 467 kts 353°
2026-04-27 18:55 41.67264 -8.57822 38003 ft 467 kts 353°
2026-04-27 18:56 41.73747 -8.58533 37997 ft 467 kts 353°
2026-04-27 18:56 41.80227 -8.59241 38000 ft 467 kts 353°
2026-04-27 18:57 41.86723 -8.58589 37997 ft 472 kts 12°
2026-04-27 18:57 41.92923 -8.55615 38006 ft 474 kts 20°
2026-04-27 18:58 41.99057 -8.52326 38003 ft 475 kts 20°
2026-04-27 18:58 42.05193 -8.49035 38017 ft 475 kts 20°
2026-04-27 18:59 42.11296 -8.45758 38026 ft 476 kts 20°
2026-04-27 18:59 42.17447 -8.42438 38021 ft 476 kts 20°
2026-04-27 19:00 42.23601 -8.39117 38020 ft 477 kts 20°
2026-04-27 19:00 42.29767 -8.35790 38021 ft 477 kts 20°
2026-04-27 19:01 42.35928 -8.32454 38036 ft 477 kts 20°
2026-04-27 19:01 42.42089 -8.29102 38042 ft 477 kts 20°
2026-04-27 19:02 42.48245 -8.25744 38047 ft 477 kts 20°
2026-04-27 19:02 42.54404 -8.22376 38048 ft 477 kts 20°
2026-04-27 19:03 42.60569 -8.19014 38056 ft 477 kts 20°
2026-04-27 19:03 42.66729 -8.15650 38057 ft 477 kts 20°
2026-04-27 19:04 42.72847 -8.12287 38057 ft 477 kts 20°
2026-04-27 19:04 42.79009 -8.08884 38071 ft 478 kts 20°
2026-04-27 19:05 42.85165 -8.05486 38069 ft 478 kts 20°
2026-04-27 19:05 42.91325 -8.02078 38077 ft 477 kts 20°
2026-04-27 19:06 42.97475 -7.98672 38080 ft 477 kts 20°
2026-04-27 19:06 43.03620 -7.95269 38083 ft 476 kts 20°
2026-04-27 19:07 43.09761 -7.91854 38086 ft 476 kts 20°
2026-04-27 19:07 43.15898 -7.88421 38095 ft 476 kts 20°
2026-04-27 19:08 43.22034 -7.84994 38107 ft 476 kts 20°
2026-04-27 19:08 43.28167 -7.81567 38114 ft 476 kts 20°
2026-04-27 19:09 43.34295 -7.78124 38118 ft 475 kts 20°
2026-04-27 19:09 43.40412 -7.74678 38125 ft 475 kts 20°
2026-04-27 19:10 43.46529 -7.71232 38121 ft 474 kts 20°
2026-04-27 19:10 43.52635 -7.67789 38119 ft 474 kts 20°
2026-04-27 19:11 43.58690 -7.64369 38127 ft 473 kts 20°
2026-04-27 19:11 43.64818 -7.60891 38119 ft 473 kts 20°
2026-04-27 19:12 43.70899 -7.57426 38128 ft 473 kts 20°
2026-04-27 19:12 43.76941 -7.53986 38126 ft 473 kts 20°
2026-04-27 19:13 43.83028 -7.50516 38139 ft 473 kts 20°
2026-04-27 19:13 43.89111 -7.47034 38144 ft 473 kts 20°
2026-04-27 19:14 43.95190 -7.43546 38146 ft 473 kts 20°
2026-04-27 19:14 44.01273 -7.40051 38165 ft 473 kts 20°
2026-04-27 19:15 44.07357 -7.36541 38157 ft 473 kts 20°
2026-04-27 19:15 44.13431 -7.33032 38157 ft 472 kts 20°
2026-04-27 19:16 44.19491 -7.29525 38175 ft 472 kts 20°
2026-04-27 19:16 44.25555 -7.26007 38159 ft 471 kts 20°
2026-04-27 19:17 44.31612 -7.22494 38156 ft 471 kts 20°
2026-04-27 19:17 44.37667 -7.18971 38148 ft 472 kts 20°
2026-04-27 19:18 44.43723 -7.15419 38170 ft 472 kts 20°
2026-04-27 19:18 44.49747 -7.11890 38170 ft 472 kts 20°
2026-04-27 19:19 44.55811 -7.08338 38167 ft 473 kts 20°
2026-04-27 19:19 44.61879 -7.04768 38168 ft 473 kts 20°
2026-04-27 19:20 44.67945 -7.01186 38176 ft 473 kts 20°
2026-04-27 19:20 44.74012 -6.97602 38180 ft 473 kts 20°
2026-04-27 19:21 44.80080 -6.94010 38196 ft 473 kts 20°
2026-04-27 19:21 44.85901 -6.89675 38187 ft 476 kts 33°
2026-04-27 19:22 44.91338 -6.84345 38181 ft 476 kts 33°
2026-04-27 19:22 44.96778 -6.79019 38179 ft 476 kts 33°
2026-04-27 19:23 45.02221 -6.73681 38194 ft 476 kts 33°
2026-04-27 19:23 45.07663 -6.68334 38193 ft 476 kts 33°
2026-04-27 19:24 45.13096 -6.62977 38189 ft 476 kts 33°
2026-04-27 19:24 45.18527 -6.57617 38191 ft 476 kts 33°
2026-04-27 19:25 45.23916 -6.52276 38197 ft 475 kts 33°
2026-04-27 19:25 45.29334 -6.46899 38202 ft 475 kts 33°
2026-04-27 19:26 45.34742 -6.41513 38202 ft 474 kts 33°
2026-04-27 19:26 45.40140 -6.36117 38203 ft 474 kts 34°
2026-04-27 19:27 45.45538 -6.30719 38208 ft 473 kts 34°
2026-04-27 19:27 45.50923 -6.25332 38206 ft 473 kts 34°
2026-04-27 19:28 45.56299 -6.19921 38199 ft 472 kts 34°
2026-04-27 19:28 45.61663 -6.14509 38207 ft 472 kts 34°
2026-04-27 19:29 45.67020 -6.09094 38206 ft 471 kts 34°
2026-04-27 19:29 45.72370 -6.03690 38206 ft 471 kts 34°
2026-04-27 19:30 45.76814 -5.99198 38207 ft 470 kts 34°
2026-04-27 19:30 45.82151 -5.93772 38217 ft 470 kts 34°
2026-04-27 19:31 45.87478 -5.88334 38212 ft 470 kts 34°
2026-04-27 19:31 45.92803 -5.82883 38209 ft 469 kts 34°
2026-04-27 19:32 45.98117 -5.77436 38204 ft 469 kts 34°
2026-04-27 19:32 46.03427 -5.71981 38213 ft 469 kts 34°
2026-04-27 19:33 46.08731 -5.66518 38213 ft 468 kts 34°
2026-04-27 19:33 46.13996 -5.61099 38208 ft 468 kts 34°
2026-04-27 19:34 46.19327 -5.55596 38197 ft 468 kts 34°
2026-04-27 19:34 46.24614 -5.50121 38205 ft 468 kts 34°
2026-04-27 19:35 46.29864 -5.44658 38208 ft 468 kts 34°
2026-04-27 19:35 46.35142 -5.39158 38202 ft 468 kts 34°
2026-04-27 19:36 46.40420 -5.33653 38203 ft 467 kts 34°
2026-04-27 19:36 46.45691 -5.28134 38212 ft 467 kts 35°
2026-04-27 19:37 46.50955 -5.22608 38202 ft 467 kts 34°
2026-04-27 19:37 46.56219 -5.17083 38200 ft 467 kts 35°
2026-04-27 19:38 46.61478 -5.11527 38196 ft 467 kts 35°
2026-04-27 19:38 46.66736 -5.05963 38197 ft 467 kts 35°
2026-04-27 19:39 46.71998 -5.00396 38202 ft 468 kts 35°
2026-04-27 19:39 46.77260 -4.94814 38202 ft 468 kts 35°
2026-04-27 19:40 46.82513 -4.89208 38202 ft 468 kts 35°
2026-04-27 19:40 46.87775 -4.83601 38205 ft 468 kts 35°
2026-04-27 19:41 46.93030 -4.77984 38203 ft 468 kts 35°
2026-04-27 19:41 46.98277 -4.72344 38199 ft 468 kts 35°
2026-04-27 19:42 47.03493 -4.66737 38198 ft 468 kts 35°
2026-04-27 19:42 47.08782 -4.61044 38201 ft 468 kts 35°
2026-04-27 19:43 47.14021 -4.55378 38200 ft 468 kts 35°
2026-04-27 19:43 47.19257 -4.49704 38198 ft 467 kts 35°
2026-04-27 19:44 47.24483 -4.44027 38196 ft 467 kts 36°
2026-04-27 19:44 47.29702 -4.38331 38196 ft 467 kts 36°
2026-04-27 19:45 47.34920 -4.32629 38203 ft 466 kts 36°
2026-04-27 19:45 47.40131 -4.26941 38202 ft 466 kts 36°
2026-04-27 19:46 47.45303 -4.21279 38201 ft 466 kts 36°
2026-04-27 19:46 47.50533 -4.15529 38203 ft 466 kts 36°
2026-04-27 19:47 47.55721 -4.09799 38209 ft 465 kts 36°
2026-04-27 19:47 47.60865 -4.04101 38210 ft 464 kts 36°
2026-04-27 19:48 47.66036 -3.98373 38210 ft 464 kts 36°
2026-04-27 19:48 47.71203 -3.92648 38208 ft 464 kts 36°
2026-04-27 19:49 47.76366 -3.86896 38224 ft 463 kts 36°
2026-04-27 19:49 47.81517 -3.81134 38220 ft 463 kts 36°
2026-04-27 19:50 47.86667 -3.75370 38218 ft 463 kts 36°
2026-04-27 19:50 47.91820 -3.69588 38222 ft 464 kts 36°
2026-04-27 19:51 47.96976 -3.63797 38234 ft 464 kts 36°
2026-04-27 19:51 48.02125 -3.57991 38240 ft 464 kts 36°
2026-04-27 19:52 48.07260 -3.52163 38242 ft 463 kts 36°
2026-04-27 19:52 48.12392 -3.46329 38244 ft 463 kts 36°
2026-04-27 19:53 48.20093 -3.37579 38254 ft 463 kts 36°
2026-04-27 19:53 48.25218 -3.31737 38252 ft 463 kts 36°
2026-04-27 19:54 48.30340 -3.25880 38254 ft 463 kts 36°
2026-04-27 19:54 48.35458 -3.20002 38256 ft 463 kts 36°
2026-04-27 19:55 48.40570 -3.14119 38262 ft 462 kts 36°
2026-04-27 19:55 48.45673 -3.08240 38266 ft 462 kts 36°
2026-04-27 19:56 48.50766 -3.02347 38277 ft 461 kts 36°
2026-04-27 19:56 48.55853 -2.96449 38244 ft 461 kts 36°
2026-04-27 19:57 48.60935 -2.90539 38237 ft 461 kts 36°
2026-04-27 19:57 48.66011 -2.84615 38246 ft 460 kts 36°
2026-04-27 19:58 48.71081 -2.78697 38267 ft 460 kts 36°
2026-04-27 19:58 48.76148 -2.72768 38259 ft 460 kts 36°
2026-04-27 19:59 48.81203 -2.66830 38264 ft 460 kts 36°
2026-04-27 19:59 48.86261 -2.60884 38272 ft 460 kts 36°
2026-04-27 20:00 48.91323 -2.54916 38257 ft 461 kts 36°
2026-04-27 20:00 48.96350 -2.48961 38254 ft 461 kts 36°
2026-04-27 20:01 49.01414 -2.42949 38245 ft 462 kts 36°
2026-04-27 20:01 49.06483 -2.36908 38242 ft 462 kts 36°
2026-04-27 20:02 49.11547 -2.30869 38250 ft 462 kts 36°
2026-04-27 20:02 49.16605 -2.24828 38246 ft 461 kts 36°
2026-04-27 20:03 49.21654 -2.18776 38258 ft 461 kts 36°
2026-04-27 20:03 49.26700 -2.12698 38275 ft 462 kts 36°
2026-04-27 20:04 49.31740 -2.06605 38277 ft 462 kts 36°
2026-04-27 20:04 49.35930 -2.01543 38275 ft 461 kts 36°
2026-04-27 20:05 49.41819 -1.94411 38272 ft 461 kts 36°
2026-04-27 20:05 49.46850 -1.88300 38277 ft 461 kts 36°
2026-04-27 20:06 49.51874 -1.82165 38291 ft 461 kts 36°
2026-04-27 20:06 49.56893 -1.76031 38287 ft 461 kts 34°
2026-04-27 20:07 49.62403 -1.71234 38275 ft 453 kts 17°
2026-04-27 20:07 49.68375 -1.68166 38269 ft 452 kts 15°
2026-04-27 20:08 49.74348 -1.65090 38281 ft 453 kts 15°
2026-04-27 20:08 49.80318 -1.62013 38278 ft 452 kts 15°
2026-04-27 20:09 49.86287 -1.58930 38279 ft 452 kts 15°
2026-04-27 20:09 49.92253 -1.55853 38287 ft 452 kts 15°
2026-04-27 20:10 49.98221 -1.52777 38303 ft 451 kts 15°
2026-04-27 20:10 50.04124 -1.49713 38295 ft 450 kts 15°
2026-04-27 20:11 50.07085 -1.48169 38092 ft 447 kts 15°
2026-04-27 20:11 50.10024 -1.46637 37821 ft 444 kts 15°
2026-04-27 20:11 50.12949 -1.45113 37549 ft 443 kts 15°
2026-04-27 20:11 50.15868 -1.43592 37286 ft 441 kts 15°
2026-04-27 20:12 50.18774 -1.42072 37040 ft 440 kts 15°
2026-04-27 20:12 50.20691 -1.41067 36869 ft 437 kts 15°
2026-04-27 20:12 50.24528 -1.39049 36158 ft 434 kts 15°
2026-04-27 20:12 50.27388 -1.37547 35384 ft 434 kts 15°
2026-04-27 20:13 50.30263 -1.36040 34493 ft 437 kts 15°
2026-04-27 20:13 50.33142 -1.34527 33609 ft 437 kts 15°
2026-04-27 20:13 50.34114 -1.34015 33296 ft 436 kts 15°